QPF
0.03 0.02 0.02 0.02 0.02 0.04 0.06 0.06 0.05 0.04 0.03 0.03 0.04 0.04 0.05 0.05 0.06 0.05 0.05 0.05 0.05 0.05 0.05 0.04 0.03 0.02 0.02 0.02 0.01 0.02 0.03 0.04 0.04 0.05 0.05 0.03 0.01 0.01
0.04 0.03 0.02 0.03 0.03 0.05 0.05 0.05 0.06 0.07 0.04 0.03 0.03 0.04 0.04 0.05 0.07 0.08 0.07 0.08 0.09 0.08 0.08 0.07 0.06 0.05 0.04 0.04 0.03 0.03 0.03 0.03 0.03 0.04 0.04 0.02 0.01 0.01
0.07 0.05 0.04 0.05 0.06 0.07 0.07 0.07 0.07 0.09 0.08 0.05 0.04 0.04 0.04 0.04 0.07 0.08 0.06 0.07 0.08 0.10 0.11 0.09 0.08 0.07 0.07 0.05 0.04 0.03 0.03 0.03 0.03 0.03 0.03 0.02 0.01 0.01
0.11 0.09 0.08 0.10 0.12 0.13 0.13 0.12 0.10 0.11 0.11 0.08 0.06 0.05 0.04 0.05 0.06 0.06 0.06 0.06 0.06 0.07 0.08 0.08 0.08 0.07 0.06 0.05 0.05 0.04 0.03 0.03 0.02 0.02 0.02 0.01 0.01 0.02
0.14 0.14 0.13 0.14 0.14 0.15 0.16 0.17 0.16 0.14 0.12 0.10 0.08 0.07 0.05 0.05 0.07 0.07 0.08 0.09 0.08 0.08 0.08 0.07 0.08 0.09 0.09 0.09 0.07 0.05 0.03 0.02 0.02 0.02 0.02 0.01 0.01 0.01
0.15 0.15 0.15 0.14 0.12 0.12 0.13 0.14 0.17 0.18 0.14 0.13 0.10 0.09 0.07 0.06 0.07 0.07 0.08 0.09 0.08 0.08 0.09 0.09 0.10 0.10 0.09 0.08 0.06 0.05 0.05 0.04 0.04 0.04 0.03 0.03 0.02 0.02
0.19 0.20 0.17 0.16 0.15 0.14 0.14 0.13 0.15 0.18 0.16 0.13 0.10 0.08 0.07 0.08 0.08 0.07 0.07 0.07 0.07 0.07 0.07 0.07 0.07 0.08 0.10 0.10 0.09 0.09 0.09 0.08 0.06 0.05 0.04 0.03 0.03 0.02
0.22 0.22 0.21 0.20 0.19 0.17 0.13 0.12 0.13 0.13 0.13 0.12 0.11 0.09 0.08 0.08 0.08 0.08 0.07 0.07 0.07 0.06 0.07 0.06 0.07 0.07 0.07 0.07 0.07 0.07 0.06 0.05 0.04 0.04 0.03 0.03 0.03 0.03
0.24 0.24 0.24 0.23 0.22 0.17 0.14 0.12 0.10 0.11 0.12 0.11 0.10 0.09 0.07 0.06 0.07 0.07 0.07 0.06 0.06 0.06 0.07 0.07 0.06 0.06 0.05 0.07 0.08 0.08 0.07 0.06 0.06 0.05 0.05 0.05 0.04 0.04
0.15 0.15 0.14 0.15 0.15 0.14 0.11 0.09 0.07 0.07 0.09 0.10 0.10 0.10 0.09 0.08 0.08 0.07 0.07 0.07 0.07 0.05 0.04 0.04 0.04 0.04 0.04 0.04 0.05 0.05 0.05 0.06 0.06 0.06 0.06 0.06 0.06 0.06
0.05 0.05 0.06 0.07 0.09 0.09 0.08 0.06 0.06 0.07 0.09 0.09 0.10 0.10 0.11 0.09 0.08 0.07 0.06 0.06 0.05 0.04 0.03 0.03 0.02 0.02 0.02 0.02 0.02 0.02 0.02 0.03 0.04 0.05 0.06 0.06 0.06 0.05
0.03 0.04 0.05 0.05 0.06 0.06 0.04 0.04 0.04 0.05 0.07 0.08 0.09 0.10 0.10 0.10 0.10 0.08 0.08 0.08 0.07 0.06 0.04 0.04 0.03 0.02 0.03 0.03 0.03 0.02 0.02 0.02 0.02 0.03 0.04 0.04 0.04 0.03
0.05 0.05 0.05 0.04 0.03 0.02 0.02 0.02 0.03 0.04 0.05 0.06 0.07 0.08 0.09 0.10 0.10 0.09 0.08 0.08 0.08 0.06 0.04 0.03 0.03 0.03 0.03 0.04 0.04 0.04 0.03 0.03 0.02 0.02 0.02 0.03 0.04 0.04
0.04 0.04 0.04 0.03 0.02 0.02 0.02 0.02 0.03 0.03 0.04 0.05 0.05 0.06 0.07 0.07 0.07 0.07 0.07 0.06 0.05 0.03 0.02 0.02 0.02 0.02 0.02 0.02 0.02 0.02 0.02 0.02 0.02 0.02 0.02 0.02 0.02 0.03
0.04 0.05 0.06 0.05 0.05 0.03 0.03 0.03 0.03 0.02 0.02 0.02 0.02 0.02 0.03 0.03 0.03 0.03 0.02 0.03 0.02 0.02 0.01 0.02 0.03 0.02 0.02 0.02 0.01 0.01 0.01 0.01 0.01 0.01 0.01 0.01 0.01 0.01
0.05 0.06 0.05 0.04 0.03 0.03 0.02 0.02 0.02 0.01 0.01 0.01 0.01 0.01 0.01 0.01 0.01 0.01 0.01 0.01 0.02 0.01 0.01 0.01 0.01 0.02 0.01 0.01 0.01 0.01 0.01 0.01 0.01 0.01 0.01 0.01 0.01 0.01
0.06 0.06 0.05 0.04 0.03 0.02 0.02 0.01 0.01 0.01 0.01 0.00 0.00 0.00 0.00 0.00 0.00 0.00 0.01 0.01 0.01 0.01 0.00 0.01 0.01 0.01 0.01 0.01 0.01 0.01 0.01 0.01 0.01 0.01 0.02 0.02 0.02 0.02
0.05 0.04 0.02 0.02 0.01 0.01 0.01 0.00 0.00 0.00 0.00 0.00 0.00 0.00 0.00 0.00 0.00 0.00 0.00 0.00 0.00 0.00 0.00 0.00 0.00 0.01 0.01 0.01 0.01 0.01 0.01 0.01 0.01 0.01 0.01 0.02 0.02 0.02
0.03 0.02 0.01 0.01 0.00 0.00 0.00 0.00 0.00 0.00 0.00 0.00 0.00 0.00 0.00 0.00 0.00 0.00 0.00 0.01 0.01 0.01 0.01 0.01 0.01 0.01 0.01 0.01 0.01 0.01 0.01 0.01 0.01 0.01 0.01 0.02 0.03 0.03
0.02 0.01 0.01 0.01 0.00 0.00 0.00 0.00 0.00 0.00 0.00 0.00 0.00 0.00 0.00 0.00 0.00 0.00 0.00 0.00 0.00 0.00 0.00 0.01 0.01 0.01 0.01 0.01 0.01 0.01 0.00 0.01 0.01 0.01 0.02 0.02 0.02 0.02
0.01 0.01 0.01 0.01 0.00 0.00 0.00 0.00 0.00 0.00 0.00 0.00 0.00 0.00 0.00 0.00 0.00 0.00 0.00 0.00 0.00 0.00 0.00 0.00 0.00 0.00 0.00 0.00 0.01 0.01 0.01 0.01 0.01 0.01 0.01 0.02 0.02 0.02
0.01 0.01 0.01 0.02 0.02 0.01 0.00 0.00 0.00 0.00 0.00 0.00 0.00 0.00 0.00 0.00 0.00 0.00 0.00 0.00 0.00 0.00 0.00 0.00 0.00 0.00 0.00 0.00 0.01 0.01 0.01 0.01 0.01 0.01 0.01 0.02 0.03 0.04
0.00 0.00 0.00 0.01 0.01 0.00 0.00 0.00 0.00 0.00 0.00 0.00 0.00 0.00 0.00 0.00 0.00 0.00 0.00 0.00 0.00 0.00 0.00 0.00 0.00 0.00 0.00 0.00 0.01 0.01 0.01 0.01 0.01 0.01 0.02 0.02 0.02 0.02
MSLP
1015.21 1015.55 1015.90 1016.25 1016.58 1016.89 1017.15 1017.37 1017.54 1017.66 1017.72 1017.73 1017.70 1017.63 1017.54 1017.44 1017.34 1017.28 1017.25 1017.27 1017.34 1017.44 1017.57 1017.69 1017.79 1017.83 1017.81 1017.73 1017.60 1017.45 1017.29 1017.17 1017.09 1017.08 1017.12 1017.20 1017.32 1017.43
1014.42 1014.76 1015.12 1015.49 1015.86 1016.24 1016.60 1016.93 1017.23 1017.49 1017.70 1017.84 1017.92 1017.94 1017.90 1017.81 1017.71 1017.61 1017.53 1017.49 1017.49 1017.53 1017.60 1017.67 1017.72 1017.72 1017.67 1017.55 1017.39 1017.19 1017.00 1016.84 1016.72 1016.66 1016.67 1016.73 1016.82 1016.92
1013.55 1013.92 1014.30 1014.71 1015.14 1015.59 1016.04 1016.49 1016.92 1017.32 1017.66 1017.94 1018.13 1018.24 1018.27 1018.22 1018.13 1018.01 1017.89 1017.79 1017.72 1017.70 1017.70 1017.70 1017.69 1017.65 1017.56 1017.41 1017.22 1017.00 1016.78 1016.59 1016.44 1016.36 1016.34 1016.38 1016.45 1016.53
1012.66 1013.06 1013.49 1013.95 1014.45 1014.97 1015.51 1016.06 1016.60 1017.11 1017.58 1017.97 1018.27 1018.47 1018.57 1018.57 1018.50 1018.38 1018.23 1018.10 1017.98 1017.89 1017.82 1017.76 1017.70 1017.61 1017.48 1017.30 1017.09 1016.86 1016.62 1016.42 1016.26 1016.16 1016.13 1016.15 1016.21 1016.27
1011.80 1012.26 1012.75 1013.27 1013.83 1014.42 1015.04 1015.66 1016.28 1016.88 1017.43 1017.91 1018.30 1018.58 1018.75 1018.80 1018.77 1018.67 1018.52 1018.36 1018.21 1018.07 1017.95 1017.84 1017.72 1017.59 1017.43 1017.23 1017.00 1016.76 1016.53 1016.32 1016.16 1016.06 1016.02 1016.03 1016.07 1016.12
1011.09 1011.60 1012.15 1012.74 1013.36 1014.00 1014.66 1015.33 1016.00 1016.64 1017.24 1017.77 1018.22 1018.56 1018.79 1018.90 1018.92 1018.85 1018.73 1018.57 1018.40 1018.24 1018.08 1017.93 1017.77 1017.60 1017.41 1017.20 1016.96 1016.72 1016.49 1016.29 1016.13 1016.03 1015.97 1015.97 1015.99 1016.03
1010.63 1011.18 1011.78 1012.42 1013.08 1013.75 1014.43 1015.11 1015.78 1016.43 1017.04 1017.59 1018.06 1018.44 1018.72 1018.89 1018.96 1018.94 1018.86 1018.73 1018.57 1018.40 1018.22 1018.05 1017.86 1017.67 1017.46 1017.23 1016.98 1016.74 1016.51 1016.31 1016.15 1016.03 1015.96 1015.93 1015.93 1015.93
1010.51 1011.09 1011.72 1012.38 1013.06 1013.73 1014.40 1015.05 1015.69 1016.30 1016.88 1017.41 1017.89 1018.29 1018.60 1018.82 1018.95 1019.00 1018.96 1018.88 1018.75 1018.59 1018.42 1018.23 1018.03 1017.82 1017.59 1017.35 1017.09 1016.84 1016.60 1016.38 1016.20 1016.06 1015.96 1015.88 1015.83 1015.78
1010.78 1011.37 1012.00 1012.66 1013.32 1013.96 1014.59 1015.18 1015.76 1016.31 1016.84 1017.33 1017.79 1018.19 1018.53 1018.79 1018.97 1019.07 1019.10 1019.07 1018.98 1018.85 1018.69 1018.51 1018.30 1018.08 1017.83 1017.57 1017.30 1017.02 1016.76 1016.51 1016.28 1016.09 1015.93 1015.80 1015.68 1015.55
1011.45 1012.02 1012.63 1013.26 1013.87 1014.46 1015.02 1015.54 1016.03 1016.51 1016.97 1017.41 1017.83 1018.22 1018.57 1018.86 1019.08 1019.24 1019.32 1019.34 1019.29 1019.19 1019.06 1018.88 1018.68 1018.44 1018.19 1017.90 1017.61 1017.30 1016.99 1016.68 1016.40 1016.14 1015.90 1015.68 1015.47 1015.26
1012.45 1012.98 1013.55 1014.12 1014.67 1015.19 1015.67 1016.10 1016.52 1016.91 1017.30 1017.68 1018.06 1018.43 1018.77 1019.08 1019.33 1019.52 1019.64 1019.69 1019.68 1019.61 1019.49 1019.33 1019.12 1018.89 1018.62 1018.31 1017.98 1017.63 1017.27 1016.90 1016.54 1016.19 1015.86 1015.54 1015.24 1014.93
1013.66 1014.14 1014.65 1015.16 1015.64 1016.08 1016.47 1016.83 1017.17 1017.49 1017.81 1018.14 1018.48 1018.82 1019.14 1019.44 1019.69 1019.89 1020.03 1020.10 1020.10 1020.05 1019.94 1019.79 1019.59 1019.35 1019.07 1018.75 1018.39 1018.00 1017.58 1017.14 1016.70 1016.26 1015.83 1015.41 1015.01 1014.61
1014.97 1015.39 1015.83 1016.27 1016.68 1017.05 1017.37 1017.66 1017.94 1018.20 1018.47 1018.75 1019.05 1019.35 1019.64 1019.91 1020.14 1020.33 1020.45 1020.52 1020.52 1020.46 1020.36 1020.21 1020.01 1019.77 1019.49 1019.15 1018.77 1018.34 1017.87 1017.37 1016.85 1016.33 1015.81 1015.30 1014.81 1014.33
1016.24 1016.60 1016.98 1017.36 1017.70 1018.01 1018.28 1018.52 1018.75 1018.97 1019.20 1019.44 1019.69 1019.95 1020.20 1020.43 1020.62 1020.76 1020.85 1020.88 1020.86 1020.79 1020.68 1020.52 1020.33 1020.09 1019.81 1019.47 1019.07 1018.61 1018.10 1017.55 1016.97 1016.38 1015.79 1015.21 1014.65 1014.11
1017.38 1017.70 1018.03 1018.35 1018.65 1018.91 1019.15 1019.36 1019.55 1019.74 1019.94 1020.15 1020.36 1020.57 1020.76 1020.93 1021.06 1021.14 1021.17 1021.16 1021.10 1021.00 1020.87 1020.71 1020.52 1020.29 1020.01 1019.67 1019.27 1018.80 1018.26 1017.68 1017.06 1016.41 1015.77 1015.14 1014.54 1013.96
1018.36 1018.65 1018.95 1019.23 1019.50 1019.73 1019.94 1020.13 1020.31 1020.48 1020.66 1020.83 1021.00 1021.16 1021.29 1021.39 1021.44 1021.45 1021.41 1021.34 1021.23 1021.10 1020.95 1020.79 1020.59 1020.37 1020.10 1019.77 1019.37 1018.90 1018.35 1017.75 1017.10 1016.43 1015.76 1015.10 1014.47 1013.88
1019.20 1019.48 1019.76 1020.02 1020.26 1020.48 1020.67 1020.85 1021.02 1021.17 1021.33 1021.47 1021.60 1021.70 1021.76 1021.79 1021.77 1021.70 1021.59 1021.46 1021.30 1021.14 1020.97 1020.79 1020.60 1020.39 1020.13 1019.81 1019.42 1018.95 1018.41 1017.79 1017.14 1016.45 1015.77 1015.10 1014.46 1013.86
1019.97 1020.24 1020.51 1020.76 1020.99 1021.19 1021.38 1021.54 1021.70 1021.84 1021.96 1022.07 1022.15 1022.20 1022.20 1022.15 1022.05 1021.92 1021.75 1021.55 1021.36 1021.17 1020.98 1020.80 1020.62 1020.42 1020.17 1019.87 1019.49 1019.02 1018.48 1017.87 1017.20 1016.52 1015.83 1015.16 1014.53 1013.93
1020.73 1021.01 1021.28 1021.52 1021.74 1021.93 1022.10 1022.25 1022.38 1022.49 1022.59 1022.66 1022.69 1022.67 1022.61 1022.50 1022.34 1022.14 1021.92 1021.69 1021.46 1021.25 1021.06 1020.89 1020.71 1020.52 1020.29 1019.99 1019.62 1019.16 1018.62 1018.01 1017.35 1016.67 1015.99 1015.32 1014.69 1014.10
1021.56 1021.84 1022.10 1022.34 1022.54 1022.71 1022.86 1022.98 1023.08 1023.16 1023.22 1023.24 1023.22 1023.15 1023.03 1022.86 1022.64 1022.40 1022.14 1021.88 1021.64 1021.42 1021.23 1021.06 1020.90 1020.72 1020.50 1020.22 1019.86 1019.41 1018.88 1018.27 1017.62 1016.94 1016.26 1015.61 1014.98 1014.39
1022.46 1022.74 1023.00 1023.22 1023.40 1023.54 1023.66 1023.74 1023.80 1023.84 1023.84 1023.81 1023.73 1023.60 1023.43 1023.21 1022.95 1022.67 1022.38 1022.11 1021.86 1021.64 1021.46 1021.31 1021.16 1021.00 1020.80 1020.54 1020.19 1019.76 1019.24 1018.65 1018.00 1017.34 1016.67 1016.02 1015.41 1014.82
1023.41 1023.69 1023.92 1024.12 1024.26 1024.37 1024.45 1024.49 1024.50 1024.48 1024.43 1024.34 1024.20 1024.02 1023.79 1023.52 1023.23 1022.92 1022.61 1022.33 1022.08 1021.87 1021.71 1021.57 1021.45 1021.31 1021.13 1020.89 1020.57 1020.16 1019.66 1019.09 1018.47 1017.83 1017.18 1016.54 1015.94 1015.36
1024.34 1024.60 1024.80 1024.96 1025.07 1025.14 1025.16 1025.15 1025.11 1025.04 1024.93 1024.78 1024.59 1024.35 1024.08 1023.76 1023.43 1023.10 1022.77 1022.48 1022.23 1022.04 1021.88 1021.77 1021.66 1021.55 1021.40 1021.19 1020.90 1020.53 1020.07 1019.54 1018.96 1018.35 1017.73 1017.12 1016.54 1015.98
Thickness
5739 5739 5738 5738 5738 5737 5736 5733 5726 5719 5721 5727 5731 5735 5735 5734 5733 5731 5730 5729 5727 5725 5723 5720 5718 5716 5714 5712 5709 5707 5704 5702 5700 5698 5696 5694 5692 5691
5738 5737 5736 5736 5736 5735 5734 5732 5730 5724 5719 5724 5727 5730 5731 5731 5730 5728 5727 5726 5725 5722 5720 5718 5715 5713 5710 5708 5705 5703 5700 5698 5696 5694 5692 5690 5688 5686
5735 5734 5733 5734 5732 5732 5730 5729 5726 5723 5718 5720 5723 5725 5725 5725 5725 5724 5722 5720 5719 5717 5715 5713 5711 5708 5706 5703 5701 5698 5695 5693 5691 5689 5687 5685 5683 5681
5731 5730 5729 5730 5728 5727 5726 5724 5722 5721 5717 5713 5714 5716 5717 5718 5718 5717 5715 5714 5712 5711 5709 5706 5704 5702 5700 5697 5695 5692 5690 5687 5685 5683 5681 5679 5677 5675
5726 5725 5724 5724 5722 5721 5721 5719 5718 5717 5714 5710 5708 5709 5710 5711 5709 5708 5708 5707 5705 5704 5702 5700 5698 5696 5693 5691 5688 5686 5683 5680 5678 5675 5674 5672 5670 5668
5721 5720 5719 5718 5717 5716 5715 5713 5712 5710 5707 5704 5702 5702 5701 5702 5700 5698 5697 5697 5696 5695 5694 5692 5690 5688 5686 5683 5681 5678 5676 5673 5671 5668 5666 5664 5662 5660
5715 5714 5713 5713 5712 5711 5710 5707 5706 5703 5700 5697 5695 5693 5692 5690 5689 5689 5687 5686 5685 5684 5683 5682 5681 5679 5677 5675 5673 5671 5668 5665 5662 5660 5658 5655 5653 5651
5707 5706 5706 5705 5705 5704 5703 5701 5699 5696 5692 5690 5686 5684 5683 5682 5681 5680 5678 5675 5672 5674 5672 5671 5671 5668 5667 5665 5663 5662 5659 5657 5654 5651 5648 5646 5644 5641
5700 5698 5698 5698 5697 5695 5694 5692 5690 5689 5687 5684 5680 5678 5676 5675 5673 5670 5668 5666 5663 5663 5661 5658 5657 5656 5655 5654 5652 5650 5648 5646 5643 5640 5638 5635 5633 5630
5691 5690 5689 5688 5687 5686 5684 5682 5680 5679 5678 5675 5672 5670 5669 5668 5665 5663 5660 5657 5654 5652 5650 5645 5644 5642 5642 5641 5639 5637 5635 5633 5631 5629 5627 5624 5621 5618
5683 5681 5680 5679 5677 5676 5675 5672 5670 5668 5667 5665 5663 5661 5660 5658 5656 5654 5649 5645 5641 5639 5637 5633 5630 5628 5628 5627 5625 5624 5622 5620 5618 5616 5614 5611 5608 5605
5673 5672 5670 5669 5668 5666 5664 5662 5658 5656 5655 5654 5652 5650 5648 5646 5645 5642 5638 5633 5628 5624 5623 5619 5616 5613 5611 5611 5610 5609 5607 5605 5603 5601 5599 5597 5595 5592
5664 5661 5659 5658 5657 5656 5654 5651 5648 5646 5644 5641 5638 5636 5634 5632 5630 5628 5626 5622 5616 5611 5610 5607 5602 5598 5594 5593 5593 5593 5591 5589 5588 5586 5584 5583 5581 5578
5653 5650 5648 5647 5646 5644 5642 5640 5638 5636 5632 5628 5625 5621 5619 5617 5616 5614 5611 5608 5604 5600 5597 5594 5588 5584 5580 5577 5575 5576 5575 5574 5572 5570 5569 5568 5566 5564
5643 5640 5638 5636 5635 5632 5630 5628 5626 5622 5618 5614 5610 5606 5604 5603 5601 5599 5596 5594 5591 5587 5584 5580 5576 5572 5568 5564 5561 5559 5558 5558 5557 5555 5554 5552 5550 5549
5632 5629 5627 5625 5622 5619 5616 5614 5611 5608 5604 5599 5595 5593 5591 5589 5586 5584 5580 5577 5574 5571 5570 5567 5564 5560 5555 5552 5548 5545 5543 5541 5542 5541 5539 5537 5536 5534
5621 5618 5614 5610 5607 5604 5601 5599 5597 5594 5590 5586 5583 5580 5577 5574 5572 5570 5566 5563 5558 5555 5553 5553 5551 5548 5544 5540 5536 5533 5530 5529 5527 5526 5524 5522 5521 5520
5611 5605 5600 5596 5593 5590 5587 5585 5582 5579 5576 5573 5570 5567 5564 5561 5558 5555 5552 5548 5544 5541 5539 5537 5535 5533 5529 5527 5524 5520 5517 5515 5514 5513 5511 5508 5507 5507
5598 5591 5587 5584 5581 5578 5575 5572 5569 5566 5563 5560 5557 5554 5551 5548 5545 5541 5538 5535 5531 5528 5526 5524 5521 5517 5513 5510 5511 5510 5506 5504 5502 5501 5499 5497 5495 5495
5584 5579 5575 5572 5569 5566 5563 5560 5556 5554 5550 5547 5544 5541 5538 5534 5531 5528 5525 5522 5518 5515 5513 5511 5509 5506 5503 5500 5498 5498 5497 5494 5492 5490 5488 5487 5486 5486
5570 5567 5564 5560 5557 5554 5550 5547 5544 5540 5537 5534 5530 5527 5524 5521 5518 5515 5512 5510 5507 5503 5501 5499 5498 5498 5495 5492 5487 5486 5487 5486 5484 5481 5479 5478 5477 5476
5558 5555 5551 5548 5544 5541 5537 5534 5530 5527 5524 5520 5517 5514 5511 5509 5506 5503 5500 5497 5494 5492 5491 5490 5490 5488 5485 5481 5478 5476 5476 5477 5476 5475 5474 5471 5468 5466
5547 5543 5540 5536 5532 5528 5525 5521 5518 5514 5510 5507 5504 5501 5499 5497 5494 5492 5490 5487 5485 5483 5481 5480 5479 5478 5475 5473 5470 5468 5468 5467 5466 5466 5466 5466 5464 5462